KLM945 BIKF-EHAM

Flight info

Callsign KLM945
Flight time 2h 41m
Altitude 41000
Route OSKUM3C OSKUM DCT RATSU/N0482F410 DCT BARKU DCT BONBY DCT SUSIS DCT ROKAN DCT TOPPA
Aircraft B789/H-SDE1E2E3FGHIJ2J3J4J5M1RWXY/LB1D1

Departure

Time 2026-04-29 21:58
Airport Keflavik International Airport (BIKF)

Arrival

Time 2026-04-30 00:39
Airport Amsterdam Airport Schiphol (EHAM)
Time Latitude Longitude Altitude Speed Heading
2026-04-29 21:34 63.99375 -22.62565 148 ft 0 kts 114°
2026-04-29 21:45 63.99378 -22.62580 148 ft 3 kts 112°
2026-04-29 21:46 63.99386 -22.62632 150 ft 3 kts 110°
2026-04-29 21:46 63.99395 -22.62677 150 ft 3 kts 122°
2026-04-29 21:46 63.99409 -22.62714 148 ft 3 kts 164°
2026-04-29 21:46 63.99428 -22.62709 148 ft 3 kts 220°
2026-04-29 21:47 63.99446 -22.62671 146 ft 3 kts 220°
2026-04-29 21:47 63.99458 -22.62651 149 ft 0 kts 202°
2026-04-29 21:50 63.99456 -22.62652 148 ft 1 kts 202°
2026-04-29 21:50 63.99441 -22.62667 146 ft 3 kts 202°
2026-04-29 21:51 63.99425 -22.62683 146 ft 4 kts 204°
2026-04-29 21:51 63.99393 -22.62715 147 ft 6 kts 204°
2026-04-29 21:51 63.99313 -22.62746 148 ft 6 kts 182°
2026-04-29 21:52 63.99271 -22.62734 148 ft 6 kts 160°
2026-04-29 21:52 63.99240 -22.62694 148 ft 5 kts 155°
2026-04-29 21:52 63.99196 -22.62673 148 ft 7 kts 167°
2026-04-29 21:52 63.99186 -22.62659 148 ft 0 kts 147°
2026-04-29 21:53 63.99181 -22.62643 148 ft 2 kts 130°
2026-04-29 21:53 63.99176 -22.62592 148 ft 6 kts 100°
2026-04-29 21:53 63.99172 -22.62447 148 ft 13 kts 90°
2026-04-29 21:53 63.99172 -22.62210 148 ft 17 kts 90°
2026-04-29 21:54 63.99172 -22.61904 148 ft 21 kts 90°
2026-04-29 21:54 63.99172 -22.61561 155 ft 22 kts 90°
2026-04-29 21:54 63.99173 -22.61236 163 ft 18 kts 90°
2026-04-29 21:54 63.99173 -22.60976 168 ft 15 kts 89°
2026-04-29 21:55 63.99173 -22.60788 173 ft 7 kts 90°
2026-04-29 21:55 63.99173 -22.60782 173 ft 0 kts 90°
2026-04-29 21:56 63.99173 -22.60760 174 ft 3 kts 91°
2026-04-29 21:56 63.99173 -22.60701 177 ft 4 kts 89°
2026-04-29 21:56 63.99174 -22.60621 180 ft 6 kts 91°
2026-04-29 21:57 63.99151 -22.60542 182 ft 6 kts 149°
2026-04-29 21:57 63.99106 -22.60540 183 ft 7 kts 181°
2026-04-29 21:57 63.99000 -22.60542 182 ft 29 kts 180°
2026-04-29 21:57 63.98593 -22.60541 181 ft 91 kts 180°
2026-04-29 21:58 63.97756 -22.60511 198 ft 147 kts 184°
2026-04-29 21:58 63.96722 -22.60386 950 ft 146 kts 185°
2026-04-29 21:58 63.95718 -22.60278 2009 ft 145 kts 181°
2026-04-29 21:58 63.94766 -22.59084 2751 ft 168 kts 149°
2026-04-29 21:59 63.94088 -22.56760 3503 ft 186 kts 123°
2026-04-29 21:59 63.93599 -22.54041 4297 ft 185 kts 124°
2026-04-29 21:59 63.93065 -22.51342 5042 ft 189 kts 124°
2026-04-29 21:59 63.92565 -22.48630 5988 ft 175 kts 123°
2026-04-29 22:00 63.92135 -22.46201 6814 ft 167 kts 124°
2026-04-29 22:00 63.91673 -22.43731 7356 ft 172 kts 124°
2026-04-29 22:00 63.91213 -22.41210 7965 ft 173 kts 124°
2026-04-29 22:00 63.90748 -22.38665 8547 ft 175 kts 125°
2026-04-29 22:01 63.90278 -22.36098 9142 ft 178 kts 125°
2026-04-29 22:01 63.89722 -22.33207 9064 ft 223 kts 123°
2026-04-29 22:01 63.89071 -22.29687 9079 ft 259 kts 121°
2026-04-29 22:01 63.88346 -22.25665 9081 ft 285 kts 120°
2026-04-29 22:02 63.87589 -22.21452 9576 ft 286 kts 120°
2026-04-29 22:02 63.86828 -22.17285 10497 ft 288 kts 121°
2026-04-29 22:02 63.86038 -22.13067 11331 ft 292 kts 122°
2026-04-29 22:02 63.85242 -22.08792 12170 ft 296 kts 122°
2026-04-29 22:03 63.84439 -22.04461 12988 ft 301 kts 122°
2026-04-29 22:03 63.83701 -21.99953 13778 ft 315 kts 110°
2026-04-29 22:03 63.83451 -21.94927 14482 ft 323 kts 106°
2026-04-29 22:03 63.83152 -21.89864 15208 ft 325 kts 108°
2026-04-29 22:04 63.82840 -21.84745 15923 ft 330 kts 108°
2026-04-29 22:04 63.82554 -21.79608 16617 ft 334 kts 108°
2026-04-29 22:04 63.82270 -21.74357 17311 ft 338 kts 108°
2026-04-29 22:04 63.81969 -21.69041 18004 ft 342 kts 109°
2026-04-29 22:05 63.81658 -21.63668 18638 ft 345 kts 109°
2026-04-29 22:05 63.81346 -21.58252 19217 ft 349 kts 110°
2026-04-29 22:05 63.80709 -21.47242 20382 ft 355 kts 111°
2026-04-29 22:06 63.80381 -21.41688 20866 ft 360 kts 111°
2026-04-29 22:06 63.80045 -21.36006 21437 ft 363 kts 112°
2026-04-29 22:06 63.79708 -21.30318 21991 ft 367 kts 112°
2026-04-29 22:06 63.79365 -21.24586 22557 ft 370 kts 113°
2026-04-29 22:07 63.79015 -21.18789 23096 ft 373 kts 113°
2026-04-29 22:07 63.78660 -21.12951 23596 ft 376 kts 113°
2026-04-29 22:07 63.78301 -21.07078 24037 ft 378 kts 114°
2026-04-29 22:07 63.77924 -21.01155 24461 ft 376 kts 117°
2026-04-29 22:08 63.77287 -20.95536 24750 ft 370 kts 122°
2026-04-29 22:08 63.76627 -20.89869 25215 ft 373 kts 122°
2026-04-29 22:08 63.75967 -20.84121 25642 ft 375 kts 122°
2026-04-29 22:08 63.75297 -20.78411 26076 ft 376 kts 123°
2026-04-29 22:09 63.74614 -20.72684 26524 ft 379 kts 123°
2026-04-29 22:09 63.73931 -20.66939 26962 ft 381 kts 123°
2026-04-29 22:09 63.73241 -20.61126 27400 ft 384 kts 123°
2026-04-29 22:09 63.72545 -20.55290 27840 ft 386 kts 123°
2026-04-29 22:10 63.71829 -20.49336 28235 ft 390 kts 124°
2026-04-29 22:10 63.71037 -20.43514 28683 ft 378 kts 131°
2026-04-29 22:10 63.69982 -20.38172 29120 ft 373 kts 134°
2026-04-29 22:10 63.68898 -20.32843 29587 ft 375 kts 134°
2026-04-29 22:11 63.67808 -20.27473 30038 ft 378 kts 134°
2026-04-29 22:11 63.66705 -20.22069 30413 ft 381 kts 134°
2026-04-29 22:11 63.65587 -20.16621 30749 ft 385 kts 134°
2026-04-29 22:11 63.64470 -20.11182 31079 ft 390 kts 133°
2026-04-29 22:12 63.63327 -20.05621 31432 ft 394 kts 133°
2026-04-29 22:12 63.62167 -19.99994 31777 ft 398 kts 132°
2026-04-29 22:12 63.60993 -19.94317 32125 ft 402 kts 132°
2026-04-29 22:12 63.59804 -19.88586 32430 ft 406 kts 131°
2026-04-29 22:13 63.58605 -19.82808 32804 ft 409 kts 131°
2026-04-29 22:13 63.57385 -19.76973 33156 ft 414 kts 131°
2026-04-29 22:13 63.56153 -19.71094 33485 ft 420 kts 131°
2026-04-29 22:13 63.54921 -19.65213 33884 ft 423 kts 131°
2026-04-29 22:14 63.53661 -19.59211 34172 ft 428 kts 130°
2026-04-29 22:14 63.52385 -19.53159 34451 ft 430 kts 130°
2026-04-29 22:14 63.51098 -19.47079 34785 ft 433 kts 130°
2026-04-29 22:14 63.49800 -19.40963 35087 ft 436 kts 129°
2026-04-29 22:15 63.48490 -19.34809 35394 ft 439 kts 129°
2026-04-29 22:15 63.47169 -19.28614 35684 ft 442 kts 128°
2026-04-29 22:15 63.45835 -19.22384 35972 ft 445 kts 128°
2026-04-29 22:15 63.44479 -19.16066 36259 ft 448 kts 127°
2026-04-29 22:16 63.43116 -19.09740 36535 ft 451 kts 127°
2026-04-29 22:16 63.41747 -19.03399 36819 ft 454 kts 127°
2026-04-29 22:16 63.40388 -18.97128 37074 ft 457 kts 126°
2026-04-29 22:16 63.38996 -18.90717 37335 ft 459 kts 126°
2026-04-29 22:17 63.37592 -18.84276 37602 ft 462 kts 126°
2026-04-29 22:17 63.36164 -18.77747 37858 ft 464 kts 125°
2026-04-29 22:17 63.34742 -18.71261 38104 ft 467 kts 125°
2026-04-29 22:17 63.33328 -18.64832 38356 ft 469 kts 124°
2026-04-29 22:18 63.31887 -18.58300 38597 ft 471 kts 124°
2026-04-29 22:18 63.30417 -18.51658 38808 ft 472 kts 124°
2026-04-29 22:18 63.28994 -18.45246 39020 ft 474 kts 124°
2026-04-29 22:18 63.27527 -18.38665 39216 ft 476 kts 124°
2026-04-29 22:19 63.26054 -18.32071 39409 ft 477 kts 124°
2026-04-29 22:19 63.24574 -18.25461 39595 ft 479 kts 124°
2026-04-29 22:19 63.23084 -18.18834 39767 ft 480 kts 124°
2026-04-29 22:19 63.21588 -18.12198 39950 ft 482 kts 124°
2026-04-29 22:20 63.20082 -18.05538 40109 ft 483 kts 124°
2026-04-29 22:20 63.18570 -17.98871 40292 ft 484 kts 124°
2026-04-29 22:20 63.17048 -17.92187 40459 ft 486 kts 124°
2026-04-29 22:20 63.15523 -17.85507 40619 ft 487 kts 124°
2026-04-29 22:21 63.13986 -17.78796 40781 ft 489 kts 124°
2026-04-29 22:21 63.12448 -17.72096 40943 ft 490 kts 123°
2026-04-29 22:21 63.10892 -17.65347 41060 ft 492 kts 123°
2026-04-29 22:22 63.07755 -17.51796 41064 ft 495 kts 124°
2026-04-29 22:22 63.04614 -17.38306 41064 ft 493 kts 124°
2026-04-29 22:23 63.01489 -17.24980 41056 ft 491 kts 124°
2026-04-29 22:23 62.98346 -17.11653 41061 ft 489 kts 124°
2026-04-29 22:24 62.95189 -16.98361 41068 ft 490 kts 124°
2026-04-29 22:24 62.92022 -16.85092 41069 ft 491 kts 124°
2026-04-29 22:25 62.89378 -16.74081 41070 ft 491 kts 125°
2026-04-29 22:25 62.85650 -16.58646 41082 ft 491 kts 125°
2026-04-29 22:26 62.82439 -16.45438 41082 ft 491 kts 125°
2026-04-29 22:26 62.79757 -16.34473 41083 ft 492 kts 125°
2026-04-29 22:27 62.76005 -16.19213 41086 ft 490 kts 125°
2026-04-29 22:27 62.73288 -16.08241 41081 ft 490 kts 125°
2026-04-29 22:28 62.70038 -15.95171 41090 ft 490 kts 126°
2026-04-29 22:28 62.66772 -15.82123 41093 ft 490 kts 126°
2026-04-29 22:29 62.63515 -15.69186 41097 ft 490 kts 126°
2026-04-29 22:29 62.60228 -15.56204 41095 ft 490 kts 126°
2026-04-29 22:30 62.56931 -15.43262 41091 ft 489 kts 126°
2026-04-29 22:30 62.53629 -15.30374 41089 ft 488 kts 126°
2026-04-29 22:31 62.50320 -15.17533 41092 ft 488 kts 126°
2026-04-29 22:31 62.47004 -15.04739 41090 ft 488 kts 126°
2026-04-29 22:32 62.43671 -14.91956 41095 ft 487 kts 126°
2026-04-29 22:32 62.40350 -14.79287 41085 ft 487 kts 126°
2026-04-29 22:33 62.37001 -14.66588 41097 ft 487 kts 127°
2026-04-29 22:33 62.33643 -14.53920 41099 ft 485 kts 127°
2026-04-29 22:34 62.30278 -14.41303 41106 ft 484 kts 127°
2026-04-29 22:34 62.26930 -14.28820 41108 ft 484 kts 127°
2026-04-29 22:35 62.23557 -14.16311 41106 ft 484 kts 127°
2026-04-29 22:35 62.20176 -14.03842 41111 ft 484 kts 127°
2026-04-29 22:36 62.16786 -13.91412 41115 ft 483 kts 127°
2026-04-29 22:36 62.13386 -13.79013 41107 ft 482 kts 127°
2026-04-29 22:37 62.10005 -13.66746 41123 ft 482 kts 127°
2026-04-29 22:37 62.06592 -13.54434 41132 ft 482 kts 127°
2026-04-29 22:38 62.03166 -13.42141 41133 ft 482 kts 127°
2026-04-29 22:38 61.99724 -13.29860 41150 ft 483 kts 127°
2026-04-29 22:39 61.96274 -13.17614 41151 ft 483 kts 127°
2026-04-29 22:39 61.92812 -13.05392 41147 ft 483 kts 127°
2026-04-29 22:40 61.89339 -12.93200 41157 ft 481 kts 127°
2026-04-29 22:40 61.85863 -12.81060 41159 ft 482 kts 127°
2026-04-29 22:41 61.82373 -12.68938 41163 ft 482 kts 127°
2026-04-29 22:41 61.78867 -12.56822 41178 ft 483 kts 127°
2026-04-29 22:42 61.75369 -12.44801 41180 ft 483 kts 127°
2026-04-29 22:42 61.71845 -12.32748 41186 ft 481 kts 127°
2026-04-29 22:43 61.68329 -12.20793 41188 ft 479 kts 127°
2026-04-29 22:43 61.64819 -12.08916 41197 ft 476 kts 127°
2026-04-29 22:44 61.61303 -11.97088 41200 ft 477 kts 127°
2026-04-29 22:44 61.57770 -11.85255 41207 ft 478 kts 127°
2026-04-29 22:45 61.54220 -11.73432 41222 ft 479 kts 127°
2026-04-29 22:45 61.50651 -11.61604 41226 ft 479 kts 127°
2026-04-29 22:46 61.47082 -11.49836 41226 ft 477 kts 128°
2026-04-29 22:46 61.43517 -11.38142 41224 ft 475 kts 128°
2026-04-29 22:47 61.39992 -11.26639 41224 ft 472 kts 128°
2026-04-29 22:47 61.36438 -11.15101 41250 ft 474 kts 128°
2026-04-29 22:48 61.32855 -11.03522 41250 ft 476 kts 128°
2026-04-29 22:48 61.29255 -10.91948 41254 ft 475 kts 128°
2026-04-29 22:49 61.25662 -10.80455 41259 ft 473 kts 128°
2026-04-29 22:49 61.22091 -10.69089 41244 ft 472 kts 128°
2026-04-29 22:50 61.18492 -10.57693 41258 ft 472 kts 128°
2026-04-29 22:50 61.14884 -10.46321 41267 ft 473 kts 128°
2026-04-29 22:51 61.11255 -10.34940 41256 ft 474 kts 128°
2026-04-29 22:51 61.05776 -10.17863 41282 ft 476 kts 129°
2026-04-29 22:52 61.02111 -10.06511 41284 ft 474 kts 129°
2026-04-29 22:52 60.97771 -9.96656 41299 ft 459 kts 148°
2026-04-29 22:53 60.92643 -9.88861 41291 ft 458 kts 148°
2026-04-29 22:53 60.87514 -9.81167 41296 ft 459 kts 148°
2026-04-29 22:54 60.82362 -9.73434 41305 ft 459 kts 149°
2026-04-29 22:54 60.77200 -9.65737 41303 ft 459 kts 149°
2026-04-29 22:55 60.72021 -9.58036 41300 ft 459 kts 149°
2026-04-29 22:55 60.66837 -9.50365 41301 ft 460 kts 148°
2026-04-29 22:56 60.61647 -9.42709 41305 ft 461 kts 147°
2026-04-29 22:56 60.56953 -9.33629 41308 ft 467 kts 138°
2026-04-29 22:57 60.52430 -9.24127 41314 ft 467 kts 139°
2026-04-29 22:57 60.47890 -9.14708 41314 ft 466 kts 139°
2026-04-29 22:58 60.43353 -9.05299 41328 ft 466 kts 138°
2026-04-29 22:58 60.38828 -8.95967 41326 ft 463 kts 139°
2026-04-29 22:59 60.34314 -8.86698 41326 ft 463 kts 139°
2026-04-29 22:59 60.29870 -8.77606 41331 ft 464 kts 139°
2026-04-29 23:00 60.25332 -8.68362 41330 ft 465 kts 139°
2026-04-29 23:00 60.20766 -8.59100 41334 ft 467 kts 139°
2026-04-29 23:01 60.16182 -8.49841 41341 ft 465 kts 138°
2026-04-29 23:01 60.11618 -8.40658 41338 ft 463 kts 138°
2026-04-29 23:02 60.07061 -8.31532 41337 ft 463 kts 139°
2026-04-29 23:02 60.02493 -8.22418 41345 ft 464 kts 139°
2026-04-29 23:03 59.97932 -8.13357 41348 ft 465 kts 139°
2026-04-29 23:03 59.93395 -8.04381 41351 ft 466 kts 139°
2026-04-29 23:04 59.88787 -7.95301 41357 ft 464 kts 138°
2026-04-29 23:04 59.84195 -7.86290 41357 ft 463 kts 138°
2026-04-29 23:05 59.79589 -7.77289 41357 ft 465 kts 138°
2026-04-29 23:05 59.74967 -7.68292 41359 ft 465 kts 138°
2026-04-29 23:06 59.70337 -7.59318 41370 ft 465 kts 138°
2026-04-29 23:06 59.65739 -7.50442 41368 ft 464 kts 138°
2026-04-29 23:07 59.61129 -7.41575 41361 ft 461 kts 138°
2026-04-29 23:07 59.56524 -7.32759 41358 ft 461 kts 138°
2026-04-29 23:08 59.51913 -7.23965 41367 ft 461 kts 138°
2026-04-29 23:08 59.47288 -7.15178 41370 ft 462 kts 139°
2026-04-29 23:09 59.42656 -7.06414 41375 ft 462 kts 139°
2026-04-29 23:09 59.38796 -6.99139 41373 ft 461 kts 138°
2026-04-29 23:10 59.34181 -6.90468 41376 ft 458 kts 138°
2026-04-29 23:10 59.29568 -6.81841 41374 ft 459 kts 139°
2026-04-29 23:11 59.24938 -6.73212 41371 ft 460 kts 139°
2026-04-29 23:11 59.20317 -6.64634 41374 ft 461 kts 139°
2026-04-29 23:12 59.15655 -6.56015 41378 ft 462 kts 139°
2026-04-29 23:12 59.11008 -6.47456 41369 ft 457 kts 139°
2026-04-29 23:13 59.06394 -6.38994 41369 ft 456 kts 139°
2026-04-29 23:13 59.01749 -6.30506 41374 ft 460 kts 139°
2026-04-29 23:14 58.97078 -6.22004 41378 ft 460 kts 139°
2026-04-29 23:14 58.92405 -6.13532 41378 ft 460 kts 139°
2026-04-29 23:15 58.87737 -6.05102 41370 ft 459 kts 139°
2026-04-29 23:15 58.83082 -5.96724 41373 ft 456 kts 139°
2026-04-29 23:16 58.78435 -5.88398 41373 ft 456 kts 139°
2026-04-29 23:16 58.73782 -5.80091 41374 ft 456 kts 139°
2026-04-29 23:17 58.69111 -5.71783 41381 ft 456 kts 139°
2026-04-29 23:17 58.64433 -5.63496 41375 ft 457 kts 139°
2026-04-29 23:18 58.59740 -5.55212 41377 ft 459 kts 139°
2026-04-29 23:18 58.55024 -5.46920 41380 ft 460 kts 139°
2026-04-29 23:19 58.50305 -5.38655 41382 ft 459 kts 139°
2026-04-29 23:19 58.45587 -5.30423 41382 ft 459 kts 139°
2026-04-29 23:20 58.40858 -5.22202 41385 ft 459 kts 139°
2026-04-29 23:20 58.36128 -5.14013 41376 ft 459 kts 139°
2026-04-29 23:21 58.31442 -5.05928 41374 ft 456 kts 139°
2026-04-29 23:21 58.26739 -4.97846 41371 ft 455 kts 139°
2026-04-29 23:22 58.22022 -4.89769 41376 ft 458 kts 139°
2026-04-29 23:22 58.17272 -4.81664 41388 ft 460 kts 139°
2026-04-29 23:23 58.12511 -4.73573 41391 ft 459 kts 139°
2026-04-29 23:23 58.07762 -4.65532 41386 ft 456 kts 139°
2026-04-29 23:24 58.03037 -4.57562 41387 ft 455 kts 139°
2026-04-29 23:24 57.98299 -4.49599 41390 ft 456 kts 139°
2026-04-29 23:25 57.93552 -4.41651 41391 ft 457 kts 139°
2026-04-29 23:25 57.88835 -4.33710 41393 ft 457 kts 135°
2026-04-29 23:26 57.84366 -4.25173 41377 ft 458 kts 135°
2026-04-29 23:26 57.79875 -4.16662 41379 ft 460 kts 135°
2026-04-29 23:27 57.75376 -4.08139 41378 ft 459 kts 135°
2026-04-29 23:27 57.70873 -3.99661 41376 ft 458 kts 135°
2026-04-29 23:28 57.66382 -3.91225 41374 ft 457 kts 135°
2026-04-29 23:28 57.61922 -3.82884 41391 ft 456 kts 135°
2026-04-29 23:29 57.57427 -3.74506 41373 ft 456 kts 135°
2026-04-29 23:29 57.52939 -3.66172 41373 ft 454 kts 135°
2026-04-29 23:30 57.48452 -3.57871 41375 ft 454 kts 135°
2026-04-29 23:30 57.43949 -3.49572 41384 ft 456 kts 135°
2026-04-29 23:31 57.39461 -3.41329 41392 ft 457 kts 135°
2026-04-29 23:31 57.34928 -3.33035 41401 ft 457 kts 135°
2026-04-29 23:32 57.30405 -3.24789 41425 ft 454 kts 135°
2026-04-29 23:32 57.25903 -3.16612 41421 ft 453 kts 135°
2026-04-29 23:33 57.21392 -3.08447 41444 ft 454 kts 136°
2026-04-29 23:33 57.16876 -3.00302 41443 ft 454 kts 136°
2026-04-29 23:34 57.12345 -2.92162 41446 ft 456 kts 136°
2026-04-29 23:34 57.07813 -2.84046 41449 ft 458 kts 136°
2026-04-29 23:35 57.03248 -2.75904 41457 ft 454 kts 136°
2026-04-29 23:35 56.98713 -2.67842 41463 ft 453 kts 136°
2026-04-29 23:36 56.94175 -2.59805 41457 ft 454 kts 136°
2026-04-29 23:36 56.89624 -2.51773 41470 ft 454 kts 136°
2026-04-29 23:37 56.85065 -2.43756 41476 ft 455 kts 136°
2026-04-29 23:37 56.80525 -2.35800 41472 ft 455 kts 136°
2026-04-29 23:38 56.75964 -2.27836 41474 ft 453 kts 136°
2026-04-29 23:38 56.71399 -2.19893 41475 ft 453 kts 136°
2026-04-29 23:39 56.66817 -2.11948 41475 ft 455 kts 136°
2026-04-29 23:39 56.62233 -2.04028 41478 ft 454 kts 136°
2026-04-29 23:40 56.57639 -1.96120 41476 ft 456 kts 136°
2026-04-29 23:40 56.53035 -1.88221 41482 ft 453 kts 136°
2026-04-29 23:41 56.48467 -1.80411 41482 ft 452 kts 136°
2026-04-29 23:41 56.43881 -1.72597 41477 ft 453 kts 136°
2026-04-29 23:42 56.39328 -1.64869 41474 ft 451 kts 136°
2026-04-29 23:42 56.34729 -1.57087 41478 ft 454 kts 137°
2026-04-29 23:43 56.30098 -1.49278 41480 ft 454 kts 137°
2026-04-29 23:43 56.25481 -1.41523 41479 ft 457 kts 137°
2026-04-29 23:44 56.20843 -1.33756 41480 ft 454 kts 137°
2026-04-29 23:44 56.16181 -1.25979 41484 ft 455 kts 137°
2026-04-29 23:45 56.11585 -1.18336 41481 ft 455 kts 137°
2026-04-29 23:45 56.06933 -1.10629 41489 ft 453 kts 137°
2026-04-29 23:46 56.02333 -1.03029 41485 ft 447 kts 137°
2026-04-29 23:46 55.97734 -0.95462 41480 ft 451 kts 137°
2026-04-29 23:47 55.93093 -0.87848 41481 ft 451 kts 137°
2026-04-29 23:47 55.88459 -0.80274 41478 ft 454 kts 137°
2026-04-29 23:48 55.83773 -0.72639 41484 ft 457 kts 137°
2026-04-29 23:48 55.79121 -0.65088 41489 ft 454 kts 137°
2026-04-29 23:49 55.74483 -0.57582 41490 ft 451 kts 137°
2026-04-29 23:49 55.69828 -0.50074 41494 ft 451 kts 137°
2026-04-29 23:50 55.65172 -0.42592 41492 ft 451 kts 137°
2026-04-29 23:51 55.59134 -0.32428 41502 ft 452 kts 131°
2026-04-29 23:51 55.54921 -0.24179 41489 ft 452 kts 132°
2026-04-29 23:52 55.50678 -0.15889 41491 ft 455 kts 132°
2026-04-29 23:52 55.46461 -0.07681 41484 ft 450 kts 132°
2026-04-29 23:53 55.42263 0.00461 41482 ft 448 kts 132°
2026-04-29 23:53 55.38048 0.08608 41484 ft 452 kts 132°
2026-04-29 23:54 55.33807 0.16779 41480 ft 454 kts 132°
2026-04-29 23:54 55.29528 0.24994 41487 ft 454 kts 132°
2026-04-29 23:55 55.25267 0.33147 41481 ft 453 kts 132°
2026-04-29 23:55 55.21061 0.41167 41479 ft 446 kts 132°
2026-04-29 23:56 55.16832 0.49204 41477 ft 450 kts 132°
2026-04-29 23:56 55.12573 0.57269 41476 ft 454 kts 132°
2026-04-29 23:57 55.08286 0.65362 41483 ft 451 kts 132°
2026-04-29 23:57 55.04019 0.73388 41479 ft 450 kts 132°
2026-04-29 23:58 54.99755 0.81385 41477 ft 449 kts 132°
2026-04-29 23:58 54.95516 0.89306 41480 ft 449 kts 132°
2026-04-29 23:59 54.91191 0.97359 41472 ft 455 kts 133°
2026-04-29 23:59 54.86905 1.05315 41473 ft 449 kts 132°
2026-04-30 00:00 54.82631 1.13219 41468 ft 449 kts 132°
2026-04-30 00:00 54.78361 1.21096 41466 ft 449 kts 132°
2026-04-30 00:01 54.74061 1.28997 41468 ft 450 kts 132°
2026-04-30 00:01 54.69745 1.36903 41475 ft 453 kts 132°
2026-04-30 00:02 54.65408 1.44819 41476 ft 449 kts 132°
2026-04-30 00:02 54.61101 1.52657 41479 ft 449 kts 132°
2026-04-30 00:03 54.56847 1.60373 41475 ft 446 kts 132°
2026-04-30 00:03 54.52533 1.68170 41468 ft 450 kts 132°
2026-04-30 00:04 54.48171 1.76027 41477 ft 457 kts 132°
2026-04-30 00:04 54.43794 1.83890 41477 ft 452 kts 133°
2026-04-30 00:05 54.39430 1.91701 41473 ft 452 kts 132°
2026-04-30 00:05 54.35071 1.99478 41471 ft 451 kts 133°
2026-04-30 00:06 54.30702 2.07248 41468 ft 453 kts 132°
2026-04-30 00:06 54.26302 2.15045 41471 ft 458 kts 133°
2026-04-30 00:07 54.21864 2.22884 41465 ft 457 kts 132°
2026-04-30 00:07 54.17450 2.30656 41465 ft 454 kts 132°
2026-04-30 00:08 54.13080 2.38328 41468 ft 454 kts 132°
2026-04-30 00:08 54.08655 2.46066 41463 ft 456 kts 132°
2026-04-30 00:09 54.04221 2.53802 41466 ft 457 kts 133°
2026-04-30 00:09 53.99767 2.61539 41445 ft 456 kts 132°
2026-04-30 00:10 53.95322 2.69242 41445 ft 459 kts 132°
2026-04-30 00:10 53.90850 2.76967 41427 ft 457 kts 133°
2026-04-30 00:11 53.86360 2.84689 41432 ft 459 kts 132°
2026-04-30 00:11 53.81870 2.92397 41431 ft 460 kts 133°
2026-04-30 00:12 53.77392 3.00051 41424 ft 460 kts 132°
2026-04-30 00:12 53.72884 3.07736 41426 ft 460 kts 132°
2026-04-30 00:13 53.68384 3.15383 41431 ft 460 kts 132°
2026-04-30 00:13 53.66097 3.19205 41127 ft 466 kts 136°
2026-04-30 00:13 53.63643 3.22743 40590 ft 457 kts 137°
2026-04-30 00:13 53.61260 3.26153 39968 ft 442 kts 136°
2026-04-30 00:14 53.58938 3.29492 39415 ft 440 kts 136°
2026-04-30 00:14 53.56597 3.32865 38831 ft 443 kts 136°
2026-04-30 00:14 53.54251 3.36223 38164 ft 442 kts 136°
2026-04-30 00:14 53.51913 3.39557 37478 ft 440 kts 136°
2026-04-30 00:15 53.49586 3.42878 36802 ft 438 kts 137°
2026-04-30 00:15 53.47266 3.46189 36146 ft 437 kts 137°
2026-04-30 00:15 53.44955 3.49478 35510 ft 434 kts 137°
2026-04-30 00:15 53.42632 3.52699 34882 ft 433 kts 142°
2026-04-30 00:16 53.40078 3.55233 34280 ft 433 kts 153°
2026-04-30 00:16 53.37245 3.56934 33622 ft 433 kts 163°
2026-04-30 00:16 53.34291 3.57887 32940 ft 430 kts 167°
2026-04-30 00:16 53.31344 3.58764 32268 ft 428 kts 167°
2026-04-30 00:17 53.28419 3.59608 31616 ft 425 kts 167°
2026-04-30 00:17 53.25511 3.60445 30960 ft 423 kts 167°
2026-04-30 00:17 53.22618 3.61289 30324 ft 420 kts 167°
2026-04-30 00:17 53.19749 3.62128 29601 ft 418 kts 167°
2026-04-30 00:18 53.16896 3.62952 28896 ft 415 kts 167°
2026-04-30 00:18 53.14061 3.63771 28190 ft 411 kts 167°
2026-04-30 00:18 53.11248 3.64585 27518 ft 408 kts 167°
2026-04-30 00:18 53.08459 3.65389 26848 ft 405 kts 167°
2026-04-30 00:19 53.05699 3.66187 26213 ft 401 kts 167°
2026-04-30 00:19 53.02949 3.66976 25578 ft 398 kts 167°
2026-04-30 00:19 53.00257 3.67753 24965 ft 395 kts 167°
2026-04-30 00:19 52.97558 3.68530 24353 ft 392 kts 167°
2026-04-30 00:20 52.94879 3.69296 23713 ft 388 kts 168°
2026-04-30 00:20 52.92221 3.70057 23014 ft 385 kts 167°
2026-04-30 00:20 52.89601 3.70806 22316 ft 381 kts 167°
2026-04-30 00:20 52.86994 3.71551 21664 ft 377 kts 167°
2026-04-30 00:21 52.84423 3.72285 21037 ft 373 kts 167°
2026-04-30 00:21 52.81876 3.73011 20440 ft 368 kts 167°
2026-04-30 00:21 52.79365 3.73724 19856 ft 363 kts 166°
2026-04-30 00:21 52.76925 3.74421 19347 ft 357 kts 167°
2026-04-30 00:22 52.74471 3.74872 18831 ft 353 kts 172°
2026-04-30 00:22 52.72044 3.75261 18262 ft 347 kts 170°
2026-04-30 00:22 52.69662 3.75686 17681 ft 342 kts 170°
2026-04-30 00:22 52.67307 3.76063 17111 ft 338 kts 171°
2026-04-30 00:23 52.64982 3.76412 16547 ft 333 kts 171°
2026-04-30 00:23 52.62691 3.76767 15995 ft 328 kts 170°
2026-04-30 00:23 52.60441 3.77189 15459 ft 321 kts 164°
2026-04-30 00:23 52.58414 3.78493 15006 ft 306 kts 144°
2026-04-30 00:24 52.56851 3.80647 15000 ft 285 kts 127°
2026-04-30 00:24 52.55805 3.83365 15014 ft 280 kts 111°
2026-04-30 00:24 52.55068 3.86343 14938 ft 283 kts 110°
2026-04-30 00:24 52.54335 3.89348 14818 ft 282 kts 110°
2026-04-30 00:25 52.53617 3.92332 14704 ft 280 kts 110°
2026-04-30 00:25 52.52908 3.95269 14585 ft 279 kts 110°
2026-04-30 00:25 52.51977 3.98059 14468 ft 280 kts 124°
2026-04-30 00:25 52.50823 4.00655 14358 ft 282 kts 122°
2026-04-30 00:26 52.49691 4.03278 14235 ft 282 kts 122°
2026-04-30 00:26 52.48554 4.05890 14121 ft 281 kts 123°
2026-04-30 00:26 52.47413 4.08488 13960 ft 280 kts 123°
2026-04-30 00:26 52.46275 4.11077 13674 ft 278 kts 123°
2026-04-30 00:27 52.45155 4.13628 13242 ft 273 kts 122°
2026-04-30 00:27 52.44056 4.16131 12794 ft 268 kts 123°
2026-04-30 00:27 52.42972 4.18597 12357 ft 265 kts 123°
2026-04-30 00:27 52.41898 4.21036 11936 ft 262 kts 123°
2026-04-30 00:28 52.40846 4.23423 11520 ft 260 kts 123°
2026-04-30 00:28 52.39790 4.25818 11098 ft 258 kts 123°
2026-04-30 00:28 52.38744 4.28187 10689 ft 256 kts 123°
2026-04-30 00:28 52.37707 4.30534 10287 ft 253 kts 123°
2026-04-30 00:29 52.36677 4.32864 9843 ft 252 kts 123°
2026-04-30 00:29 52.35654 4.35177 9383 ft 251 kts 123°
2026-04-30 00:29 52.34633 4.37482 8947 ft 250 kts 123°
2026-04-30 00:29 52.33615 4.39775 8525 ft 248 kts 123°
2026-04-30 00:30 52.32604 4.42052 8108 ft 246 kts 123°
2026-04-30 00:30 52.31603 4.44306 7677 ft 244 kts 123°
2026-04-30 00:30 52.30606 4.46549 7259 ft 243 kts 123°
2026-04-30 00:30 52.29615 4.48776 6852 ft 242 kts 124°
2026-04-30 00:31 52.28627 4.50993 6408 ft 241 kts 124°
2026-04-30 00:31 52.27642 4.53205 5990 ft 240 kts 124°
2026-04-30 00:31 52.26665 4.55395 5535 ft 238 kts 124°
2026-04-30 00:31 52.25655 4.57536 5114 ft 237 kts 132°
2026-04-30 00:32 52.24267 4.58988 4725 ft 239 kts 155°
2026-04-30 00:32 52.22630 4.59438 4465 ft 244 kts 176°
2026-04-30 00:32 52.21486 4.59346 4301 ft 245 kts 178°
2026-04-30 00:32 52.19780 4.59179 4067 ft 243 kts 179°
2026-04-30 00:33 52.18120 4.59009 3902 ft 232 kts 178°
2026-04-30 00:33 52.16575 4.58861 3683 ft 214 kts 177°
2026-04-30 00:33 52.15161 4.59035 3421 ft 196 kts 159°
2026-04-30 00:33 52.14017 4.60049 3132 ft 182 kts 136°
2026-04-30 00:34 52.13263 4.61600 2990 ft 167 kts 117°
2026-04-30 00:34 52.12925 4.63350 2991 ft 162 kts 100°
2026-04-30 00:34 52.12865 4.65175 2995 ft 161 kts 96°
2026-04-30 00:34 52.12858 4.66995 2984 ft 163 kts 86°
2026-04-30 00:35 52.13324 4.68689 2989 ft 170 kts 63°
2026-04-30 00:35 52.14049 4.70238 3013 ft 172 kts 60°
2026-04-30 00:35 52.14838 4.71709 2995 ft 178 kts 48°
2026-04-30 00:35 52.16028 4.72475 2995 ft 192 kts 17°
2026-04-30 00:36 52.17357 4.72589 3011 ft 191 kts 11°
2026-04-30 00:36 52.18687 4.72682 3024 ft 191 kts 11°
2026-04-30 00:36 52.20033 4.72822 2867 ft 194 kts 11°
2026-04-30 00:36 52.21356 4.72931 2508 ft 187 kts 11°
2026-04-30 00:37 52.22617 4.73009 1987 ft 177 kts 11°
2026-04-30 00:37 52.23827 4.73060 1553 ft 165 kts 13°
2026-04-30 00:37 52.24901 4.73153 1223 ft 148 kts 15°
2026-04-30 00:37 52.25879 4.73285 964 ft 138 kts 16°
2026-04-30 00:38 52.26823 4.73419 761 ft 135 kts 13°
2026-04-30 00:38 52.27770 4.73508 598 ft 138 kts 10°
2026-04-30 00:38 52.28739 4.73590 414 ft 140 kts
2026-04-30 00:38 52.29718 4.73683 243 ft 140 kts 10°
2026-04-30 00:39 52.30684 4.73780 39 ft 137 kts
2026-04-30 00:39 52.31604 4.73874 4 ft 139 kts
2026-04-30 00:39 52.32537 4.73956 4 ft 88 kts
2026-04-30 00:39 52.32837 4.73982 4 ft 19 kts
2026-04-30 00:40 52.32903 4.74063 4 ft 14 kts 61°
2026-04-30 00:40 52.32900 4.74212 6 ft 12 kts 118°
2026-04-30 00:40 52.32831 4.74267 5 ft 11 kts 175°
2026-04-30 00:40 52.32746 4.74263 5 ft 13 kts 183°
2026-04-30 00:41 52.32650 4.74255 5 ft 14 kts 183°
2026-04-30 00:41 52.32545 4.74246 5 ft 16 kts 184°
2026-04-30 00:41 52.32428 4.74234 5 ft 18 kts 182°
2026-04-30 00:41 52.32300 4.74221 5 ft 19 kts 183°
2026-04-30 00:42 52.32172 4.74210 5 ft 13 kts 183°
2026-04-30 00:42 52.32096 4.74204 5 ft 8 kts 182°
2026-04-30 00:42 52.32032 4.74198 5 ft 10 kts 183°
2026-04-30 00:42 52.31953 4.74191 5 ft 13 kts 183°
2026-04-30 00:43 52.31858 4.74182 5 ft 15 kts 184°
2026-04-30 00:43 52.31749 4.74171 5 ft 17 kts 183°
2026-04-30 00:43 52.31627 4.74160 5 ft 18 kts 182°
2026-04-30 00:43 52.31495 4.74151 5 ft 20 kts 186°
2026-04-30 00:44 52.31406 4.74151 5 ft 7 kts 154°
2026-04-30 00:44 52.31389 4.74214 5 ft 7 kts 102°
2026-04-30 00:44 52.31389 4.74310 5 ft 10 kts 87°
2026-04-30 00:44 52.31392 4.74444 5 ft 13 kts 86°
2026-04-30 00:45 52.31398 4.74610 5 ft 16 kts 86°
2026-04-30 00:45 52.31405 4.74804 5 ft 18 kts 87°
2026-04-30 00:45 52.31412 4.75023 5 ft 21 kts 87°
2026-04-30 00:45 52.31419 4.75270 5 ft 23 kts 87°
2026-04-30 00:46 52.31429 4.75535 5 ft 24 kts 86°
2026-04-30 00:46 52.31439 4.75817 5 ft 25 kts 87°
2026-04-30 00:46 52.31448 4.76046 5 ft 12 kts 86°
2026-04-30 00:46 52.31452 4.76141 5 ft 9 kts 86°
2026-04-30 00:47 52.31456 4.76250 5 ft 10 kts 86°
2026-04-30 00:47 52.31455 4.76330 5 ft 3 kts 111°
2026-04-30 00:47 52.31448 4.76337 5 ft 0 kts 142°
2026-04-30 00:47 52.31444 4.76337 5 ft 1 kts 160°
2026-04-30 00:48 52.31437 4.76332 5 ft 2 kts 191°
2026-04-30 00:48 52.31403 4.76308 5 ft 7 kts 204°
2026-04-30 00:48 52.31373 4.76285 5 ft 0 kts 206°
2026-04-30 00:48 52.31370 4.76282 5 ft 0 kts 206°